Time,TemperatureF,DewpointF,PressureIn,WindDirection,WindDirectionDegrees,WindSpeedMPH,WindSpeedGustMPH,Humidity,HourlyPrecipIn,Conditions,Clouds,dailyrainin,SoftwareType,DateUTC
2013-03-10 00:11:00,34.0,34.0,-100.00,West,260,2.0,6.0,99,0.00,,,0.00,,2013-03-10 06:11:00,
2013-03-10 00:22:00,34.0,34.0,-100.00,West,280,6.0,7.0,99,0.00,,,0.00,,2013-03-10 06:22:00,
2013-03-10 00:32:00,34.0,34.0,-100.00,WSW,255,4.0,7.0,99,0.00,,,0.00,,2013-03-10 06:32:00,
2013-03-10 00:42:00,34.0,34.0,-100.00,WSW,255,4.0,7.0,99,0.00,,,0.00,,2013-03-10 06:42:00,
2013-03-10 00:51:00,34.0,34.0,-100.00,WSW,255,4.0,7.0,99,0.00,,,0.00,,2013-03-10 06:51:00,
2013-03-10 01:01:00,34.0,34.0,-100.00,WSW,255,4.0,7.0,99,0.00,,,0.00,,2013-03-10 07:01:00,
2013-03-10 01:11:00,34.0,34.0,-100.00,WSW,255,4.0,7.0,99,0.00,,,0.00,,2013-03-10 07:11:00,
2013-03-10 01:42:00,34.0,34.0,-100.00,WNW,295,8.0,14.0,99,0.00,,,0.00,,2013-03-10 07:42:00,
2013-03-10 09:21:00,33.0,32.0,-100.00,WNW,290,15.0,22.0,99,0.00,,,0.01,,2013-03-10 14:21:00,
2013-03-10 09:32:00,33.0,32.0,-100.00,WNW,300,14.0,22.0,99,0.00,,,0.01,,2013-03-10 14:32:00,
2013-03-10 09:41:00,33.0,32.0,-100.00,WNW,300,11.0,17.0,99,0.00,,,0.01,,2013-03-10 14:41:00,
2013-03-10 09:51:00,33.0,32.0,-100.00,NW,305,14.0,21.0,99,0.00,,,0.01,,2013-03-10 14:51:00,
2013-03-10 10:01:00,33.0,32.0,-100.00,WNW,300,15.0,24.0,99,0.00,,,0.01,,2013-03-10 15:01:00,
2013-03-10 10:11:00,33.0,32.0,-100.00,WNW,290,14.0,20.0,99,0.00,,,0.01,,2013-03-10 15:11:00,
2013-03-10 10:21:00,33.0,32.0,-100.00,NW,315,12.0,26.0,99,0.00,,,0.01,,2013-03-10 15:21:00,
2013-03-10 10:32:00,33.0,32.0,-100.00,WNW,300,15.0,24.0,99,0.00,,,0.01,,2013-03-10 15:32:00,
2013-03-10 10:42:00,33.0,32.0,-100.00,WNW,295,15.0,27.0,99,0.00,,,0.01,,2013-03-10 15:42:00,
2013-03-10 10:51:00,33.0,32.0,-100.00,NW,305,17.0,24.0,99,0.00,,,0.01,,2013-03-10 15:51:00,
2013-03-10 11:01:00,33.0,32.0,-100.00,NW,315,17.0,26.0,99,0.00,,,0.01,,2013-03-10 16:01:00,
2013-03-10 14:11:00,33.0,32.0,-100.00,NW,315,17.0,26.0,97,0.00,,,0.01,,2013-03-10 19:11:00,
2013-03-10 14:21:00,33.0,32.0,-100.00,NW,305,17.0,27.0,95,0.00,,,0.01,,2013-03-10 19:21:00,
2013-03-10 14:31:00,34.0,32.0,-100.00,NW,305,20.0,26.0,95,0.00,,,0.01,,2013-03-10 19:31:00,
2013-03-10 14:42:00,34.0,32.0,-100.00,NW,310,14.0,26.0,95,0.00,,,0.01,,2013-03-10 19:42:00,
2013-03-10 14:52:00,34.0,32.0,-100.00,NW,320,17.0,24.0,94,0.00,,,0.01,,2013-03-10 19:52:00,
2013-03-10 15:02:00,34.0,32.0,-100.00,NW,320,20.0,26.0,93,0.00,,,0.01,,2013-03-10 20:02:00,
2013-03-10 15:12:00,34.0,32.0,-100.00,NW,320,18.0,27.0,93,0.00,,,0.01,,2013-03-10 20:12:00,
2013-03-10 15:22:00,33.0,32.0,-100.00,NW,315,18.0,29.0,94,0.00,,,0.01,,2013-03-10 20:22:00,
2013-03-10 15:32:00,33.0,32.0,-100.00,NW,315,16.0,27.0,97,0.00,,,0.01,,2013-03-10 20:32:00,
2013-03-10 15:52:00,33.0,32.0,-100.00,NW,305,14.0,25.0,99,0.00,,,0.01,,2013-03-10 20:52:00,
2013-03-10 16:02:00,33.0,32.0,-100.00,NW,305,15.0,27.0,99,0.00,,,0.01,,2013-03-10 21:02:00,
2013-03-10 16:12:00,33.0,32.0,-100.00,NW,310,18.0,24.0,99,0.00,,,0.01,,2013-03-10 21:12:00,
2013-03-10 16:22:00,32.0,32.0,-100.00,WNW,295,16.0,23.0,99,0.00,,,0.01,,2013-03-10 21:22:00,
2013-03-10 16:32:00,32.0,32.0,-100.00,NW,315,14.0,26.0,99,0.00,,,0.01,,2013-03-10 21:32:00,
2013-03-10 16:42:00,32.0,32.0,-100.00,NW,305,17.0,26.0,99,0.00,,,0.01,,2013-03-10 21:42:00,
2013-03-10 16:52:00,32.0,32.0,-100.00,NW,315,14.0,23.0,99,0.00,,,0.01,,2013-03-10 21:52:00,
2013-03-10 17:02:00,32.0,32.0,-100.00,NW,315,18.0,29.0,99,0.00,,,0.01,,2013-03-10 22:02:00,
2013-03-10 17:12:00,32.0,32.0,-100.00,NW,320,19.0,27.0,99,0.00,,,0.01,,2013-03-10 22:12:00,
2013-03-10 17:22:00,32.0,32.0,-100.00,NW,305,17.0,29.0,99,0.00,,,0.01,,2013-03-10 22:22:00,
2013-03-10 17:32:00,32.0,32.0,-100.00,NW,310,19.0,29.0,99,0.00,,,0.01,,2013-03-10 22:32:00,
2013-03-10 17:42:00,32.0,32.0,-100.00,NW,310,19.0,26.0,99,0.00,,,0.01,,2013-03-10 22:42:00,
2013-03-10 18:42:00,31.0,30.0,-100.00,WNW,290,12.0,24.0,99,0.00,,,0.01,,2013-03-10 23:42:00,
2013-03-10 18:52:00,31.0,30.0,-100.00,West,280,14.0,22.0,99,0.00,,,0.01,,2013-03-10 23:52:00,
2013-03-10 19:02:00,31.0,30.0,-100.00,WNW,285,12.0,16.0,99,0.00,,,0.01,,2013-03-11 00:02:00,
2013-03-10 19:12:00,31.0,30.0,-100.00,WNW,285,12.0,17.0,99,0.00,,,0.01,,2013-03-11 00:12:00,
2013-03-10 19:22:00,31.0,30.0,-100.00,West,280,13.0,17.0,99,0.00,,,0.01,,2013-03-11 00:22:00,
2013-03-10 19:33:00,31.0,30.0,-100.00,West,275,11.0,19.0,99,0.00,,,0.01,,2013-03-11 00:33:00,
2013-03-10 19:42:00,31.0,30.0,-100.00,WNW,285,13.0,20.0,99,0.00,,,0.01,,2013-03-11 00:42:00,
2013-03-10 19:52:00,31.0,30.0,-100.00,WNW,285,11.0,20.0,99,0.00,,,0.01,,2013-03-11 00:52:00,
2013-03-10 20:02:00,30.0,30.0,-100.00,WNW,285,14.0,19.0,99,0.00,,,0.01,,2013-03-11 01:02:00,
2013-03-10 20:22:00,30.0,30.0,-100.00,WNW,290,17.0,24.0,99,0.00,,,0.01,,2013-03-11 01:22:00,
2013-03-10 20:32:00,30.0,30.0,-100.00,WNW,285,20.0,26.0,99,0.00,,,0.01,,2013-03-11 01:32:00,
2013-03-10 22:02:00,29.0,28.0,-100.00,WNW,290,21.0,28.0,99,0.00,,,0.01,,2013-03-11 03:02:00,
2013-03-10 22:12:00,29.0,28.0,-100.00,WNW,290,21.0,29.0,99,0.00,,,0.01,,2013-03-11 03:12:00,
2013-03-10 22:22:00,29.0,28.0,-100.00,WNW,300,15.0,26.0,99,0.00,,,0.01,,2013-03-11 03:22:00,
2013-03-10 22:32:00,29.0,28.0,-100.00,WNW,300,19.0,28.0,99,0.00,,,0.01,,2013-03-11 03:32:00,
2013-03-10 22:42:00,29.0,28.0,-100.00,WNW,290,18.0,26.0,99,0.00,,,0.01,,2013-03-11 03:42:00,
2013-03-10 22:52:00,29.0,28.0,-100.00,WNW,290,19.0,26.0,99,0.00,,,0.01,,2013-03-11 03:52:00,
2013-03-10 23:02:00,29.0,28.0,-100.00,WNW,300,18.0,24.0,99,0.00,,,0.01,,2013-03-11 04:02:00,
2013-03-10 23:12:00,29.0,28.0,-100.00,WNW,290,17.0,24.0,99,0.00,,,0.01,,2013-03-11 04:12:00,
2013-03-10 23:22:00,29.0,28.0,-100.00,WNW,285,16.0,24.0,99,0.00,,,0.01,,2013-03-11 04:22:00,
2013-03-10 23:32:00,29.0,28.0,-100.00,WNW,290,15.0,26.0,99,0.00,,,0.01,,2013-03-11 04:32:00,
2013-03-10 23:42:00,29.0,28.0,-100.00,WNW,290,16.0,23.0,99,0.00,,,0.01,,2013-03-11 04:42:00,
2013-03-10 23:52:00,29.0,28.0,-100.00,WNW,290,17.0,22.0,99,0.00,,,0.01,,2013-03-11 04:52:00,